This is the latest recevied weather packets stored in our database for station/object EA1GGY-1. If no packets are shown the sender has not sent any weather packets the latest 10 day(s).
| Time | Temp. | Humidity | Pressure | Rain* | Wind** | Luminosity | Snow |
|---|---|---|---|---|---|---|---|
| 1788509459 | 18.89° C | 55% | 1021.6 hPa | - | - | - | - |
| 1788508859 | 18.89° C | 55% | 1021.6 hPa | - | - | - | - |
| 1788508258 | 17.78° C | 57% | 1021.7 hPa | - | - | - | - |
| 1788507657 | 17.22° C | 59% | 1021.6 hPa | - | - | - | - |
| 1788507056 | 16.67° C | 59% | 1021.6 hPa | - | - | - | - |
| 1788506455 | 16.67° C | 58% | 1021.6 hPa | - | - | - | - |
| 1788505855 | 16.11° C | 58% | 1021.5 hPa | - | - | - | - |
| 1788505254 | 16.11° C | 57% | 1021.5 hPa | - | - | - | - |
| 1788504653 | 16.11° C | 56% | 1021.4 hPa | - | - | - | - |
| 1788504052 | 16.11° C | 57% | 1021.4 hPa | - | - | - | - |
| 1788503451 | 16.11° C | 55% | 1021.3 hPa | - | - | - | - |
| 1788502851 | 15.56° C | 58% | 1021.3 hPa | - | - | - | - |
| 1788502250 | 16.11° C | 58% | 1021.2 hPa | - | - | - | - |
| 1788501649 | 15.56° C | 57% | 1021.1 hPa | - | - | - | - |
| 1788501048 | 16.11° C | 58% | 1021.1 hPa | - | - | - | - |
| 1788500447 | 16.11° C | 56% | 1021 hPa | - | - | - | - |
| 1788499847 | 15.56° C | 59% | 1021.1 hPa | - | - | - | - |
| 1788499246 | 15.56° C | 60% | 1021.1 hPa | - | - | - | - |
| 1788498644 | 16.67° C | 57% | 1021 hPa | - | - | - | - |
| 1788498043 | 16.11° C | 60% | 1020.9 hPa | - | - | - | - |
| 1788497443 | 16.11° C | 59% | 1021 hPa | - | - | - | - |
| 1788496842 | 15.56° C | 60% | 1021 hPa | - | - | - | - |
| 1788496241 | 15.56° C | 61% | 1021 hPa | - | - | - | - |
| 1788495640 | 16.11° C | 61% | 1021.1 hPa | - | - | - | - |
| 1788495039 | 16.67° C | 59% | 1021.2 hPa | - | - | - | - |
* Rain since midnight (hover to see other rain measurements)
** Current wind speed in m/s (hover to see current wind gust speed)